Sigfox identifier Datetime Temperature Humidity SNR
003A53F9 2019-04-23 14:44:52 15.7 32 22
003A53F9 2019-04-23 14:10:40 15.7 32 21.9
003A53F9 2019-04-23 13:36:28 15.6 32 21.4
003A53F9 2019-04-23 13:02:17 15.5 32 21.6
003A53F9 2019-04-23 12:28:06 15.5 32 21.4
003A53F9 2019-04-23 11:53:54 15.5 32 21.4
003A53F9 2019-04-23 11:19:41 15.5 31 21.5
003A53F9 2019-04-23 10:45:29 15.3 31 21.5
003A53F9 2019-04-23 10:11:16 15.3 31 21.4
003A53F9 2019-04-23 09:37:04 15.3 31 21.5
003A53F9 2019-04-23 09:02:52 15.3 31 21.4
003A53F9 2019-04-23 08:28:41 15.3 31 21.3
003A53F9 2019-04-23 07:54:29 15.3 31 21.1
003A53F9 2019-04-23 07:20:20 15.3 31 21
003A53F9 2019-04-23 06:46:06 15.3 31 20.9
003A53F9 2019-04-23 06:11:54 15.3 31 20.9
003A53F9 2019-04-23 05:37:43 15.3 31 20.9
003A53F9 2019-04-23 05:03:31 15.3 31 20.8
003A53F9 2019-04-23 04:29:20 15.3 31 20.7
003A53F9 2019-04-23 03:55:09 15.3 31 20.7
003A53F9 2019-04-23 03:20:58 15.3 31 20.6
003A53F9 2019-04-23 02:46:47 15.4 31 20.6
003A53F9 2019-04-23 02:12:35 15.5 31 20.6
003A53F9 2019-04-23 01:38:24 15.5 31 20.6
003A53F9 2019-04-23 01:04:12 15.5 31 20.5
003A53F9 2019-04-23 00:30:00 15.5 31 20.4
003A53F9 2019-04-22 23:55:48 15.5 31 20.3
003A53F9 2019-04-22 23:21:37 15.5 31 20.2
003A53F9 2019-04-22 22:47:26 15.5 31 20.1
003A53F9 2019-04-22 22:13:14 15.5 31 20
003A53F9 2019-04-22 21:39:02 15.5 31 19.9
003A53F9 2019-04-22 21:04:51 15.5 31 19.7
003A53F9 2019-04-22 20:30:40 15.6 31 19.7
003A53F9 2019-04-22 19:56:30 15.6 31 19.6
003A53F9 2019-04-22 19:22:20 15.7 31 19.5
003A53F9 2019-04-22 18:48:10 15.7 31 19.4
003A53F9 2019-04-22 18:13:59 15.7 31 19.3
003A53F9 2019-04-22 17:39:49 15.5 31 19.3
003A53F9 2019-04-22 17:05:38 15.5 31 19.4
003A53F9 2019-04-22 16:31:27 15.5 31 19.4
003A53F9 2019-04-22 15:57:16 15.5 31 19.3
003A53F9 2019-04-22 15:23:05 15.5 31 19.4
003A53F9 2019-04-22 14:48:55 15.5 31 19.4
003A53F9 2019-04-22 14:14:44 15.5 31 19.3
003A53F9 2019-04-22 13:40:32 15.5 31 19.3
003A53F9 2019-04-22 13:06:20 15.5 30 19.4
003A53F9 2019-04-22 12:32:08 15.5 31 19.4
003A53F9 2019-04-22 11:57:56 15.4 30 19.3
003A53F9 2019-04-22 11:23:43 15.4 30 19.4
003A53F9 2019-04-22 10:49:30 15.3 31 20.9
003A53F9 2019-04-22 10:15:18 15.3 30 21
003A53F9 2019-04-22 09:41:06 15.3 30 20.9
003A53F9 2019-04-22 09:06:54 15.3 30 21
003A53F9 2019-04-22 08:32:42 15.3 30 21.1
003A53F9 2019-04-22 07:58:30 15.3 30 21.1
003A53F9 2019-04-22 07:24:18 15.3 30 21.2
003A53F9 2019-04-22 06:50:07 15.3 30 21.2
003A53F9 2019-04-22 06:15:56 15.3 30 21.1
003A53F9 2019-04-22 05:41:44 15.3 30 21.2
003A53F9 2019-04-22 05:07:32 15.3 30 21.1
003A53F9 2019-04-22 04:33:20 15.3 30 21.1
003A53F9 2019-04-22 03:59:08 15.3 30 21.1
003A53F9 2019-04-22 03:24:57 15.3 30 21
003A53F9 2019-04-22 02:50:46 15.3 30 21
003A53F9 2019-04-22 02:16:34 15.3 30 21.1
003A53F9 2019-04-22 01:42:22 15.3 30 21.1
003A53F9 2019-04-22 01:08:09 15.3 30 21.1
003A53F9 2019-04-22 00:33:58 15.3 30 21.1
003A53F9 2019-04-21 23:59:47 15.3 30 21.2
003A53F9 2019-04-21 23:25:36 15.3 30 21.2
003A53F9 2019-04-21 22:51:25 15.3 30 21.2
003A53F9 2019-04-21 22:17:14 15.3 30 21.2
003A53F9 2019-04-21 21:43:03 15.3 30 21.2
003A53F9 2019-04-21 21:08:51 15.3 30 21.2
003A53F9 2019-04-21 20:34:40 15.3 30 19.7
003A53F9 2019-04-21 20:00:28 15.3 30 19.7
003A53F9 2019-04-21 19:26:16 15.3 30 19.7
003A53F9 2019-04-21 18:52:05 15.3 30 19.5
003A53F9 2019-04-21 18:17:53 15.3 30 19.4
003A53F9 2019-04-21 17:43:41 15.2 30 19.5
003A53F9 2019-04-21 17:09:29 15.2 30 19.5
003A53F9 2019-04-21 16:35:18 15.2 29 19.6
003A53F9 2019-04-21 16:01:06 15.2 29 19.6
003A53F9 2019-04-21 15:26:55 15.1 29 19.6
003A53F9 2019-04-21 14:52:43 15.2 29 19.7
003A53F9 2019-04-21 14:18:30 15.2 29 19.6
003A53F9 2019-04-21 13:44:19 15.2 29 19.7
003A53F9 2019-04-21 13:10:06 15.2 29 19.8
003A53F9 2019-04-21 12:35:55 15.2 29 19.8
003A53F9 2019-04-21 12:01:43 15.3 29 19.8
003A53F9 2019-04-21 11:27:33 15.3 29 19.8
003A53F9 2019-04-21 10:53:19 15.3 29 19.8
003A53F9 2019-04-21 10:19:08 15.3 29 19.8
003A53F9 2019-04-21 09:44:57 15.3 29 19.7
003A53F9 2019-04-21 09:10:45 15.3 29 19.7
003A53F9 2019-04-21 08:36:34 15.3 29 19.8
003A53F9 2019-04-21 08:02:26 15.4 29 19.8
003A53F9 2019-04-21 07:28:11 15.3 29 19.9
003A53F9 2019-04-21 06:54:00 15.3 29 19.9
003A53F9 2019-04-21 06:19:49 15.3 29 19.9
003A53F9 2019-04-21 05:45:37 15.3 29 20
003A53F9 2019-04-21 05:11:26 15.3 29 19.9
003A53F9 2019-04-21 04:37:14 15.3 29 19.9
003A53F9 2019-04-21 04:03:01 15.3 29 20
003A53F9 2019-04-21 03:28:50 15.3 29 20
003A53F9 2019-04-21 02:54:39 15.3 29 20
003A53F9 2019-04-21 02:20:28 15.3 29 19.9
003A53F9 2019-04-21 01:46:16 15.3 29 19.9
003A53F9 2019-04-21 01:12:04 15.3 29 19.8
003A53F9 2019-04-21 00:37:52 15.3 29 19.9
003A53F9 2019-04-21 00:03:41 15.3 29 20
003A53F9 2019-04-20 23:29:29 15.3 29 20.1
003A53F9 2019-04-20 22:55:18 15.3 29 20.1
003A53F9 2019-04-20 22:21:08 15.3 29 19.9
003A53F9 2019-04-20 21:46:58 15.3 29 19.9
003A53F9 2019-04-20 21:12:48 15.3 29 20
003A53F9 2019-04-20 20:38:38 15.3 28 20
003A53F9 2019-04-20 20:04:27 15.3 28 20
003A53F9 2019-04-20 19:30:16 15.3 28 20
003A53F9 2019-04-20 18:56:08 15.3 28 20
003A53F9 2019-04-20 18:21:53 15.3 28 20.1
003A53F9 2019-04-20 17:47:44 15.3 28 20.1
003A53F9 2019-04-20 17:13:31 15.3 28 20.1
003A53F9 2019-04-20 16:39:19 15.3 28 20.2
003A53F9 2019-04-20 16:05:08 15.3 28 20.3
003A53F9 2019-04-20 15:31:00 15.3 28 20.2
003A53F9 2019-04-20 14:56:44 15.3 28 20.4
003A53F9 2019-04-20 14:22:33 15.3 28 20.4
003A53F9 2019-04-20 13:48:21 15.3 28 20.4
003A53F9 2019-04-20 13:14:10 15.3 28 20.3
003A53F9 2019-04-20 12:39:59 15.3 28 20.3
003A53F9 2019-04-20 12:05:48 15.3 28 20.4
003A53F9 2019-04-20 11:31:36 15.5 28 20.5
003A53F9 2019-04-20 10:57:25 15.5 28 20.5
003A53F9 2019-04-20 10:23:15 15.5 28 20.5
003A53F9 2019-04-20 09:49:04 15.5 28 20.5
003A53F9 2019-04-20 09:14:53 15.5 28 20.4
003A53F9 2019-04-20 08:40:42 15.5 28 20.5
003A53F9 2019-04-20 08:06:32 15.5 28 20.6
003A53F9 2019-04-20 07:32:22 15.5 28 20.5
003A53F9 2019-04-20 06:58:12 15.5 28 20.5
003A53F9 2019-04-20 06:24:01 15.5 28 20.4
003A53F9 2019-04-20 05:49:51 15.5 28 20.4
003A53F9 2019-04-20 05:15:40 15.5 28 20.3
003A53F9 2019-04-20 04:41:30 15.5 28 20.2
003A53F9 2019-04-20 04:07:20 15.5 27 20.1
003A53F9 2019-04-20 03:33:09 15.7 27 19.9
003A53F9 2019-04-20 02:58:59 15.6 27 19.7
003A53F9 2019-04-20 02:24:49 15.7 27 19.8
003A53F9 2019-04-20 01:50:39 15.7 27 19.8
003A53F9 2019-04-20 01:16:28 15.7 27 19.7
003A53F9 2019-04-20 00:42:17 15.7 27 19.9
003A53F9 2019-04-20 00:08:05 15.7 27 19.8
003A53F9 2019-04-19 23:33:54 15.8 27 19.8
003A53F9 2019-04-19 22:59:42 15.8 27 19.8
003A53F9 2019-04-19 22:25:31 15.9 27 19.7
003A53F9 2019-04-19 21:51:17 15.9 27 19.6
003A53F9 2019-04-19 21:17:06 15.9 27 19.6
003A53F9 2019-04-19 20:42:56 15.9 27 19.6
003A53F9 2019-04-19 20:08:44 15.9 27 19.7
003A53F9 2019-04-19 19:34:32 15.9 27 19.7
003A53F9 2019-04-19 19:00:21 15.9 27 19.8
003A53F9 2019-04-19 18:26:08 15.9 27 19.8
003A53F9 2019-04-19 17:51:57 15.9 27 19.8
003A53F9 2019-04-19 17:17:46 15.9 27 19.8
003A53F9 2019-04-19 16:43:35 15.7 27 19.9
003A53F9 2019-04-19 16:09:25 15.7 27 19.9
003A53F9 2019-04-19 15:35:13 15.7 27 19.9
003A53F9 2019-04-19 15:01:02 15.7 27 19.9
003A53F9 2019-04-19 14:26:50 15.7 27 19.9
003A53F9 2019-04-19 13:52:39 15.7 27 20
003A53F9 2019-04-19 13:18:28 15.7 27 20.1
003A53F9 2019-04-19 12:44:17 15.7 27 20.3
003A53F9 2019-04-19 12:10:07 15.7 27 20.3
003A53F9 2019-04-19 11:35:57 15.7 27 20.3
003A53F9 2019-04-19 11:01:46 15.7 26 20.3
003A53F9 2019-04-19 10:27:37 15.7 26 20.2
003A53F9 2019-04-19 09:53:27 15.7 26 20.3
003A53F9 2019-04-19 09:19:17 15.7 26 20.7
003A53F9 2019-04-19 08:45:08 15.7 26 21.4
003A53F9 2019-04-19 08:10:59 15.7 26 21.8
003A53F9 2019-04-19 07:36:48 15.7 26 21.9
003A53F9 2019-04-19 07:02:38 15.7 26 22.3
003A53F9 2019-04-19 06:28:28 15.7 26 22.6
003A53F9 2019-04-19 05:54:17 15.8 26 22.6
003A53F9 2019-04-19 05:20:07 15.8 26 22.7
003A53F9 2019-04-19 04:45:57 15.9 26 22.8
003A53F9 2019-04-19 04:11:46 15.9 26 22.8
003A53F9 2019-04-19 03:37:36 15.9 26 22.8
003A53F9 2019-04-19 03:03:27 15.9 26 22.7
003A53F9 2019-04-19 02:29:17 15.9 26 22.8
003A53F9 2019-04-19 01:55:07 16 26 23.1
003A53F9 2019-04-19 01:20:56 16.1 26 23.4
003A53F9 2019-04-19 00:46:45 16.1 26 23.4
003A53F9 2019-04-19 00:12:34 16.1 26 23.4
003A53F9 2019-04-18 23:38:23 16.2 26 23.5
003A53F9 2019-04-18 23:04:13 16.3 26 23.9
003A53F9 2019-04-18 22:30:02 16.3 26 24.1
003A53F9 2019-04-18 21:55:52 16.3 26 24.1
003A53F9 2019-04-18 21:21:42 16.3 26 24.1
003A53F9 2019-04-18 20:47:32 16.3 26 24
003A53F9 2019-04-18 20:13:23 16.3 26 24
003A53F9 2019-04-18 19:39:14 16.3 26 23.9
003A53F9 2019-04-18 19:05:05 16.3 26 23.6
003A53F9 2019-04-18 18:30:56 16.3 25 23.2
003A53F9 2019-04-18 17:56:46 16.3 25 23.6
003A53F9 2019-04-18 17:22:36 16.3 25 23.5
003A53F9 2019-04-18 16:48:26 16.1 25 23
003A53F9 2019-04-18 16:14:16 16.1 25 22.7
003A53F9 2019-04-18 15:40:05 16.1 25 22.6
003A53F9 2019-04-18 15:05:56 16.1 25 23.3
003A53F9 2019-04-18 14:31:46 16.1 25 23.1
003A53F9 2019-04-18 13:57:35 16 25 23
003A53F9 2019-04-18 13:23:24 15.9 25 23.7
003A53F9 2019-04-18 12:49:13 15.9 25 23.9
003A53F9 2019-04-18 12:15:00 15.9 25 23.9
003A53F9 2019-04-18 11:40:49 15.9 25 23.9
003A53F9 2019-04-18 11:06:38 16 25 23.5
003A53F9 2019-04-18 10:32:27 15.9 25 23.7
003A53F9 2019-04-18 09:58:16 15.9 25 23.9
003A53F9 2019-04-18 09:24:06 15.9 24 23.9
003A53F9 2019-04-18 08:49:55 16 24 23.7
003A53F9 2019-04-18 08:15:44 16.1 24 23.7
003A53F9 2019-04-18 07:41:33 16.1 24 23.6
003A53F9 2019-04-18 07:07:22 16.1 24 23.7
003A53F9 2019-04-18 06:33:11 16.1 24 23.9
003A53F9 2019-04-18 05:59:01 16.1 24 24
003A53F9 2019-04-18 05:24:50 16.1 24 24.2
003A53F9 2019-04-18 04:50:40 16.1 24 24.2
003A53F9 2019-04-18 04:16:30 16.1 24 24.3
003A53F9 2019-04-18 03:42:19 16.1 24 23.9
003A53F9 2019-04-18 03:08:11 16.1 24 24.1
003A53F9 2019-04-18 02:33:59 16.3 24 24.1
003A53F9 2019-04-18 01:59:49 16.3 24 24.2
003A53F9 2019-04-18 01:25:39 16.3 24 23.5
003A53F9 2019-04-18 00:51:29 16.4 24 23.6
003A53F9 2019-04-18 00:17:18 16.5 24 23.7
003A53F9 2019-04-17 23:43:11 16.5 24 23.2
003A53F9 2019-04-17 23:08:58 16.5 24 23
003A53F9 2019-04-17 22:34:47 16.5 24 22.9
003A53F9 2019-04-17 22:00:38 16.5 24 22.9
003A53F9 2019-04-17 21:26:28 16.5 23 22.6
003A53F9 2019-04-17 20:52:18 16.5 23 22.4
003A53F9 2019-04-17 20:18:07 16.5 23 22.2
003A53F9 2019-04-17 19:43:57 16.5 23 22.1
003A53F9 2019-04-17 19:09:46 16.5 23 21.8
003A53F9 2019-04-17 18:35:36 16.5 23 21.8
003A53F9 2019-04-17 18:01:25 16.6 23 21.7
003A53F9 2019-04-17 17:27:14 16.8 23 21.7
003A53F9 2019-04-17 16:53:03 16.8 23 21.6
003A53F9 2019-04-17 16:18:51 16.8 23 21.3
003A53F9 2019-04-17 15:44:40 16.8 23 21.5
003A53F9 2019-04-17 15:10:29 16.9 22 21.6
003A53F9 2019-04-17 14:36:18 17 22 21.2
003A53F9 2019-04-17 14:02:08 17 23 21
003A53F9 2019-04-17 13:27:59 17 23 21.2
003A53F9 2019-04-17 12:53:49 17 23 21.3
003A53F9 2019-04-17 12:19:39 17 23 21.2
003A53F9 2019-04-17 11:45:30 17 22 21.1
003A53F9 2019-04-17 11:11:19 17 22 21.1
003A53F9 2019-04-17 10:37:08 17.1 22 21
003A53F9 2019-04-17 10:02:57 17.2 22 20.5
003A53F9 2019-04-17 09:28:46 17.2 22 20.4
003A53F9 2019-04-17 08:54:36 17.4 22 20.3
003A53F9 2019-04-17 08:20:26 17.4 21 20.1
003A53F9 2019-04-17 07:46:15 17.6 21 20
003A53F9 2019-04-17 07:12:03 17.6 22 20.2
003A53F9 2019-04-17 06:37:53 17.8 22 20.2
003A53F9 2019-04-17 06:03:42 17.8 22 20.2
003A53F9 2019-04-17 05:29:32 17.8 22 19.9
003A53F9 2019-04-17 04:55:21 17.9 21 19.7
003A53F9 2019-04-17 04:21:10 18 21 19.5
003A53F9 2019-04-17 03:47:00 18 21 19.3
003A53F9 2019-04-17 03:12:50 18.2 21 19
003A53F9 2019-04-17 02:38:39 18.3 21 18.8
003A53F9 2019-04-17 02:04:30 18.3 21 18.6
003A53F9 2019-04-17 01:30:20 18.3 21 18.2
003A53F9 2019-04-17 00:56:12 18.4 21 17.9
003A53F9 2019-04-17 00:22:03 18.5 21 17.5
003A53F9 2019-04-16 23:47:52 18.5 21 17.3
003A53F9 2019-04-16 23:13:44 18.6 20 16.8
003A53F9 2019-04-16 22:39:35 18.7 20 16.3
003A53F9 2019-04-16 22:05:25 18.9 20 16.3
003A53F9 2019-04-16 21:31:16 19.1 20 16.3
003A53F9 2019-04-16 20:57:06 19.1 21 16.3
003A53F9 2019-04-16 20:22:57 19.1 21 19.1
003A53F9 2019-04-16 19:48:49 19.3 21 19.2
003A53F9 2019-04-16 19:14:41 19.3 21 19.2
003A53F9 2019-04-16 18:40:32 19.4 20 19.2
003A53F9 2019-04-16 18:06:26 19.5 20 19.1
003A53F9 2019-04-16 16:58:08 19.8 20 19
003A53F9 2019-04-16 15:49:52 20.3 20 18.5
003A53F9 2019-04-16 15:15:43 20.4 20 18.5
003A53F9 2019-04-16 14:41:36 20.6 20 18.3
003A53F9 2019-04-16 13:33:21 20.8 21 18.2
003A53F9 2019-04-16 12:59:13 20.8 21 18.2
003A53F9 2019-04-16 12:25:05 20.8 21 18
003A53F9 2019-04-16 11:50:58 20.8 21 18.3
003A53F9 2019-04-16 11:16:50 20.6 21 18.3
003A53F9 2019-04-16 10:42:42 20.6 21 18.2
003A53F9 2019-04-16 10:08:36 20.6 21 18.2
003A53F9 2019-04-16 09:34:26 20.6 21 18.2
003A53F9 2019-04-16 09:00:21 20.6 21 18.2
003A53F9 2019-04-16 08:26:14 20.6 21 18.2
003A53F9 2019-04-16 07:52:01 20.6 21 18.2
003A53F9 2019-04-16 07:17:55 20.6 21 18.2
003A53F9 2019-04-16 06:43:45 20.6 21 18.2
003A53F9 2019-04-16 06:09:37 20.6 20 18.1
003A53F9 2019-04-16 05:35:29 20.6 20 18.1
003A53F9 2019-04-16 05:01:22 20.6 20 18
003A53F9 2019-04-16 04:27:12 20.6 20 13.7
003A53F9 2019-04-16 03:53:05 20.8 20 13.5
003A53F9 2019-04-16 03:18:57 20.8 20 13.5
003A53F9 2019-04-16 02:44:49 20.8 20 13.6
003A53F9 2019-04-16 02:10:45 20.8 20 13.6
003A53F9 2019-04-16 01:36:35 20.8 20 17.9
003A53F9 2019-04-16 01:02:28 20.8 20 18.3
003A53F9 2019-04-16 00:28:21 20.8 20 19.1
003A53F9 2019-04-15 23:54:13 20.8 20 20.8
003A53F9 2019-04-15 23:20:06 20.8 20 21.2
003A53F9 2019-04-15 22:45:58 20.8 20 21.5
003A53F9 2019-04-15 22:11:49 20.8 20 22
003A53F9 2019-04-15 21:37:40 20.8 20 22.3
003A53F9 2019-04-15 21:03:32 20.8 19 22.5
003A53F9 2019-04-15 20:29:25 20.8 19 23.3
003A53F9 2019-04-15 19:55:20 21 19 24
003A53F9 2019-04-15 19:21:09 21 19 24.5
003A53F9 2019-04-15 18:47:00 21 19 24.8
003A53F9 2019-04-15 18:12:52 21 19 25
003A53F9 2019-04-15 17:38:44 21.2 19 25.2
003A53F9 2019-04-15 17:04:36 21.2 19 25.4
003A53F9 2019-04-15 16:30:29 21.3 19 25.8
003A53F9 2019-04-15 15:56:23 21.4 19 26.2
003A53F9 2019-04-15 15:22:15 21.5 19 26.4
003A53F9 2019-04-15 14:48:07 21.5 18 26.6
003A53F9 2019-04-15 14:13:57 21.7 18 26.9
003A53F9 2019-04-15 13:39:49 21.8 18 27.1
003A53F9 2019-04-15 13:05:42 21.9 18 27.2
003A53F9 2019-04-15 12:31:35 22.1 18 27.4
003A53F9 2019-04-15 11:57:29 22.1 15 27.2
003A53F9 2019-04-15 11:23:21 22 15 27.3
003A53F9 2019-04-15 10:49:12 21.9 16 27.4
003A53F9 2019-04-15 10:15:04 21.9 16 27.3
003A53F9 2019-04-15 09:40:56 21.9 17 27.3
003A53F9 2019-04-15 09:06:47 21.7 17 27.4
003A53F9 2019-04-15 08:32:39 21.7 17 27.5
003A53F9 2019-04-15 07:58:30 21.7 16 27.5
003A53F9 2019-04-15 07:24:21 21.6 17 27.7
003A53F9 2019-04-15 06:50:13 21.5 17 27.5
003A53F9 2019-04-15 06:16:05 21.5 17 27.4
003A53F9 2019-04-15 05:41:55 21.5 17 27.4
003A53F9 2019-04-15 05:07:46 21.5 17 27.4
003A53F9 2019-04-15 04:33:36 21.5 17 27.3
003A53F9 2019-04-15 03:59:28 21.5 17 27.3
003A53F9 2019-04-15 03:25:20 21.5 17 27.3
003A53F9 2019-04-15 02:51:12 21.5 17 27.3
003A53F9 2019-04-15 02:17:03 21.5 17 27.3
003A53F9 2019-04-15 01:42:55 21.5 17 27.2
003A53F9 2019-04-15 01:08:46 21.5 17 27.1
003A53F9 2019-04-15 00:34:38 21.5 17 27.2
003A53F9 2019-04-15 00:00:31 21.5 17 27.1
003A53F9 2019-04-14 23:26:23 21.5 17 26.9
003A53F9 2019-04-14 22:52:15 21.5 17 26.9
003A53F9 2019-04-14 22:18:07 21.6 17 27
003A53F9 2019-04-14 21:43:58 21.7 18 27
003A53F9 2019-04-14 21:09:49 21.7 18 27
003A53F9 2019-04-14 20:35:40 21.7 18 27.1
003A53F9 2019-04-14 20:01:31 21.8 18 26.9
003A53F9 2019-04-14 19:27:21 21.8 18 26.9
003A53F9 2019-04-14 18:53:13 21.9 18 27.1
003A53F9 2019-04-14 18:19:04 21.7 18 26.8
003A53F9 2019-04-14 17:44:56 21.7 18 27
003A53F9 2019-04-14 17:10:47 21.7 18 26.9
003A53F9 2019-04-14 16:36:39 21.7 18 26.9
003A53F9 2019-04-14 16:02:29 21.7 18 26.8
003A53F9 2019-04-14 15:28:20 21.7 18 26.9
003A53F9 2019-04-14 14:54:11 21.6 18 26.9
003A53F9 2019-04-14 14:20:02 21.7 18 26.9
003A53F9 2019-04-14 13:45:53 21.7 18 26.9
003A53F9 2019-04-14 13:11:44 21.7 18 26.9
003A53F9 2019-04-14 12:37:35 21.7 18 26.9
003A53F9 2019-04-14 12:03:25 21.7 18 27
003A53F9 2019-04-14 11:29:16 21.7 18 26.9
003A53F9 2019-04-14 10:55:08 21.7 18 26.9
003A53F9 2019-04-14 10:20:59 21.7 18 26.8
003A53F9 2019-04-14 09:46:50 21.6 18 27
003A53F9 2019-04-14 09:12:41 21.7 18 27
003A53F9 2019-04-14 08:38:31 21.7 18 27
003A53F9 2019-04-14 08:04:22 21.6 18 26.9
003A53F9 2019-04-14 07:30:12 21.5 18 26.8
003A53F9 2019-04-14 06:56:03 21.5 18 26.8
003A53F9 2019-04-14 06:21:53 21.5 17 26.8
003A53F9 2019-04-14 05:47:43 21.6 17 26.9
003A53F9 2019-04-14 05:13:34 21.5 17 26.9
003A53F9 2019-04-14 04:39:24 21.5 17 26.9
003A53F9 2019-04-14 04:05:14 21.5 17 26.8
003A53F9 2019-04-14 03:31:04 21.7 18 26.9
003A53F9 2019-04-14 02:56:54 21.7 18 26.9
003A53F9 2019-04-14 02:22:45 21.7 18 26.9
003A53F9 2019-04-14 01:48:36 21.7 18 26.9
003A53F9 2019-04-14 01:14:29 21.7 18 26.8
003A53F9 2019-04-14 00:40:20 21.7 18 26.8
003A53F9 2019-04-14 00:06:12 21.7 17 26.7
003A53F9 2019-04-13 23:32:04 21.7 17 26.9
003A53F9 2019-04-13 22:57:55 21.7 17 26.8
003A53F9 2019-04-13 22:23:47 21.7 17 26.9
003A53F9 2019-04-13 21:49:38 21.7 17 26.8
003A53F9 2019-04-13 21:15:29 21.7 17 26.9
003A53F9 2019-04-13 20:41:21 21.8 17 26.7
003A53F9 2019-04-13 20:07:11 21.9 17 26.8
003A53F9 2019-04-13 19:33:03 21.9 17 26.6
003A53F9 2019-04-13 18:58:53 21.9 17 26.7
003A53F9 2019-04-13 18:24:46 21.9 17 26.7
003A53F9 2019-04-13 17:50:38 21.9 17 26.7
003A53F9 2019-04-13 17:16:28 21.9 17 26.8
003A53F9 2019-04-13 16:42:19 21.9 17 26.7
003A53F9 2019-04-13 16:08:10 21.9 17 26.5
003A53F9 2019-04-13 15:34:03 22 17 26.5
003A53F9 2019-04-13 14:59:55 22.1 17 26.6
003A53F9 2019-04-13 14:25:47 22.1 17 26.4
003A53F9 2019-04-13 13:51:39 22.1 17 26.5
003A53F9 2019-04-13 13:17:30 22.1 17 26.3
003A53F9 2019-04-13 12:43:22 22.1 17 26.4
003A53F9 2019-04-13 12:09:13 22.1 17 26.3
003A53F9 2019-04-13 11:35:05 22.1 17 26.2
003A53F9 2019-04-13 11:00:56 22.1 17 26.3
003A53F9 2019-04-13 10:26:47 22.1 17 26.3
003A53F9 2019-04-13 09:52:38 22.1 17 26.4
003A53F9 2019-04-13 09:18:29 22.1 17 26.5
003A53F9 2019-04-13 08:44:20 22.1 17 26.5
003A53F9 2019-04-13 08:10:11 22.1 17 26.5
003A53F9 2019-04-13 07:36:03 22.1 17 26.6
003A53F9 2019-04-13 07:01:56 22.1 17 26.4
003A53F9 2019-04-13 06:27:48 22.1 17 26.5
003A53F9 2019-04-13 05:53:39 22 17 26.3
003A53F9 2019-04-13 05:19:31 22.1 17 26.6
003A53F9 2019-04-13 04:45:23 22.1 17 26.8
003A53F9 2019-04-13 04:11:14 22.1 17 27
003A53F9 2019-04-13 03:37:05 22.1 17 27
003A53F9 2019-04-13 03:02:55 22.1 17 26.9
003A53F9 2019-04-13 02:28:47 22.1 17 26.9
003A53F9 2019-04-13 01:54:39 22.2 17 27
003A53F9 2019-04-13 01:20:31 22.1 17 27
003A53F9 2019-04-13 00:46:22 22.2 17 26.9
003A53F9 2019-04-13 00:12:13 22.3 17 27
003A53F9 2019-04-12 23:38:05 22.3 18 27.1
003A53F9 2019-04-12 23:03:56 22.3 18 27.1
003A53F9 2019-04-12 22:29:47 22.3 18 27.1
003A53F9 2019-04-12 21:55:37 22.5 18 27.2
003A53F9 2019-04-12 21:21:28 22.5 18 27.4
003A53F9 2019-04-12 20:47:19 22.5 18 27.3
003A53F9 2019-04-12 20:13:09 22.5 17 27.3
003A53F9 2019-04-12 19:39:00 22.5 17 27.4
003A53F9 2019-04-12 19:04:50 22.5 17 27.1
003A53F9 2019-04-12 18:30:42 22.5 16 27.2
003A53F9 2019-04-12 17:56:33 22.7 16 27.2
003A53F9 2019-04-12 17:22:25 22.8 16 27.3
003A53F9 2019-04-12 16:48:15 22.8 16 27.6
003A53F9 2019-04-12 16:14:05 22.9 17 27.8
003A53F9 2019-04-12 15:39:57 22.8 17 28.4
003A53F9 2019-04-12 15:05:47 22.7 17 27.9
003A53F9 2019-04-12 14:31:37 22.6 17 26.9
003A53F9 2019-04-12 13:57:27 22.3 18 23.6
003A53F9 2019-04-12 13:23:17 21.7 19 18.6